Showing default

NIGHTJAR, 60535

Orbit data source: Space-Track

NIGHTJAR, 60535 is a payload satellite owned by TASA (TW) in SSO that was launched on Fri, 16 Aug 2024 UTC via an FALCON 9 launch vehicle from the Air Force Western Test Range (AFWTR). Payload-class satellites include a variety of spacecraft equipped with specific instruments for various scientific and technological missions. These include communications satellites like Starlink; space stations such as the ISS; scientific satellites like the Hubble; Earth observation satellites from companies like Planet Labs, Umbra, and HawkEye 360; GPS; miniature CubeSats for education and research; and military/defense satellites.

Loading next visibility...
Identifier
60535, 2024-149BV
Orbit
SSO
Country
Flag of TWTW / TWN
Related business
Manufacturer
NANAV/RAPTEK
Mission
Operational Civil Communications
Bus & Motor
CUBESAT 3U, Unknown motor
Mass
5 kg wet, 5 kg dry
Launch date (UTC)
2024-08-16 (1 year ago)
Launch vehicle
FALCON 9
Launch site
Air Force Western Test Range (AFWTR)
Object type
Payload
Rocket body
Debris
Shape & HBR
Box, 0.1 m
Radar Cross Section
0.080 m², Medium (>0.1 m² and < 1m²)

Expand to show TLE details & history
Last TLE update: 17 hours ago

TLE from 17 hours ago
0 NIGHTJAR
1 60535U 24149BV  25344.93759251  .00006236  00000-0  53923-3 0  9990
2 60535  97.7037  59.2780 0001069  64.7298 295.4035 14.97541873114684
Epoch: 2025-12-10T22:30Z
TLE epoch observation values (Epoch: 2025-12-10T22:30:07.992Z)
Latitude
-0.00002°
Longitude
1.84395°
Altitude
577.227 km
Speed
7.572 km/s
True Right ascension
03h 57m 06s
True Declination
0° 00' 00"
Sunlit
Object was in full shadow at epoch
Visualization orbit readout
Latitude
Unknown
Longitude
Unknown
Altitude
Unknown
Speed
Unknown
Apparent Right ascension
Unknown
Apparent Declination
Unknown
Sunlit
N/A
Visualization observer readout
Local Sidereal Time
14:04:58
Azimuth
Unknown
Elevation
Unknown
Doppler factor
Unknown
Orbital elements
Apogee altitude
572.246 km
Perigee altitude
570.76 km
Semi-major axis
6,949.64 km
Eccentricity
0.00011
Inclination
97.7037°
RAAN
59.278°
Arg. of periapsis
64.7298°
True anomaly
295.39243°
Mean anomaly
295.4035°
Eccentric anomaly
295.39797°
Mean motion
3.74628 °/min
Orbital period
96.1 mins
BSTAR
0.00053923
Loading maneuver chart data...
Computing Atmospheric mass density...
Loading historical data...
Loading historical data...
Loading historical data...
Loading historical data...
Loading historical data...
Loading historical data...
Loading historical data...

Documentation

Showing up to 5 results
|